Orbital Elements at Epoch 2459000.5 (2020-May-31.0) TDB
Reference: JPL 21 (heliocentric ecliptic J2000)
Element | Value | Uncertainty (1-sigma) | Units |
e | .1329918122363673 | 3.6363e-08 | |
a | 2.727424250877239 | 1.673e-08 | au |
q | 2.364699157015659 | 1.0295e-07 | au |
i | 8.626681372859164 | 4.9579e-06 | deg |
node | 339.2149697787336 | 2.8175e-05 | deg |
peri | 127.926450775563 | 3.5029e-05 | deg |
M | 350.7794311135813 | 2.079e-05 | deg |
tp | 2459042.638850992274 (2020-Jul-12.13885099) | 9.5126e-05 | TDB |
period | 1645.233232795759 4.50 | 1.5138e-05 4.145e-08 | d yr |
n | .21881396073446 | 2.0133e-09 | deg/d |
Q | 3.09014934473882 | 1.8955e-08 | au |
|
| | Orbit Determination Parameters
Additional Information
|